Regional Weather Roundup
Issued by NWS Green Bay, WI

Home | Current Version | Previous Version | Graphics & Text | Print | Product List | Glossary Off
Versions: 1 2 3 4 5 6 7 8 9 10 11 12 13 14 15 16 17 18 19 20 21 22 23 24 25 26 27 28 29 30 31 32 33 34 35 36 37 38 39 40 41 42 43 44 45 46 47 48 49 50

000
ASUS43 KGRB 251759
RWRGRB

NORTH-CENTRAL AND NORTHEAST WISCONSIN REGIONAL WEATHER ROUNDUP
NATIONAL WEATHER SERVICE GREEN BAY WI
100 PM CDT FRI JUL 25 2014

WIZ005-009-010>012-018-019-251900-
NORTH CENTRAL WISCONSIN

CITY           SKY/WX    TMP DP  RH WIND       PRES   REMARKS
IRONWOOD       NOT AVBL
MANITOWISH WTR NOT AVBL
ARBOR VITAE    NOT AVBL
EAGLE RIVER    NOT AVBL
LAND O LAKES   NOT AVBL
RHINELANDER    CLOUDY    66  60  81 SW6       29.90F
PHILLIPS       NOT AVBL
ANTIGO         NOT AVBL
TOMAHAWK       NOT AVBL
MERRILL        NOT AVBL
$$

WIZ013-073-251900-
NORTHEAST WISCONSIN

CITY           SKY/WX    TMP DP  RH WIND       PRES   REMARKS
IRON MOUNTAIN  CLOUDY    72  57  59 SW13      29.88S
MARINETTE      CLOUDY    72  57  60 SW9G16    29.89F
$$

WIZ017-030-035>037-045-251900-
CENTRAL WISCONSIN

CITY           SKY/WX    TMP DP  RH WIND       PRES   REMARKS
MEDFORD        NOT AVBL
WAUSAU         CLOUDY    70  60  70 S13G22    29.88S
MOSINEE        CLOUDY    64  61  88 S13       29.91F
MARSHFIELD     CLOUDY    65  60  84 S9        29.89F
WISC RAPIDS    CLOUDY    65  59  81 SW7       29.92S
STEVENS POINT  NOT AVBL
WAUPACA        NOT AVBL
SHAWANO        NOT AVBL
CLINTONVILLE   NOT AVBL
$$

WIZ038-039-048-051-251900-
FOX VALLEY

CITY           SKY/WX    TMP DP  RH WIND       PRES   REMARKS
NWS GREEN BAY  CLOUDY    71  59  65 SW9G20    29.91F
APPLETON       CLOUDY    66  55  68 S14       29.91F
OSHKOSH        CLOUDY    68  58  70 SW10G24   29.91F
FOND DU LAC    CLOUDY    67  57  70 S12G21    29.92F
$$

WIZ022-050-052-251900-
EAST CENTRAL WISCONSIN

CITY           SKY/WX    TMP DP  RH WIND       PRES   REMARKS
STURGEON BAY   CLOUDY    72  55  56 SW12      29.93S
MANITOWOC      NOT AVBL
SHEBOYGAN      CLOUDY    71  56  58 S15       29.94F
$$

LMZ563-521-522-541>543-251900-
LAKESHORE

STATION/POSITION TIME  TEMP    WIND        PRES    VSBY  WAVE
                       AIR SEA DIR/SP/G                  HT/PER
                 (UTC) (F)     (DEG/KT/KT) (MB)    (MI)  (FT/S)
SHEBOYGAN LKSHOR 1700   65     170/ 17/ 17 1014.2R
KEWAUNEE LKSHORE 1700   54     180/  8/  9 1014.4S
NORTHPORT PIER   1700   67     150/  5/ 10 1012.9S
N MID LAKE BUOY  1700   58 56  200/ 14/ 16 1012.6F         2/ 4
STURGEON BAY CG  1700   55 48  190/  9     1014.1S     6   1
CHAMBERS ISLAND  1700   69     210/  6/ 10 1012.9S
MENOMINEE LKSHOR 1700   70     200/  9/ 12 1013.6F
$$



USA.gov is the U.S. government's official web portal to all federal, state and local government web resources and services.